TimeCDT,TemperatureF,Dew PointF,Humidity,Sea Level PressureIn,VisibilityMPH,Wind Direction,Wind SpeedMPH,Gust SpeedMPH,PrecipitationIn,Events,Conditions,WindDirDegrees,DateUTC
12:15 AM,38.3,35.8,91,30.20,10.0,Calm,Calm,-,N/A,,Clear,0,2012-10-08 05:15:00
12:35 AM,38.3,36.0,91,30.21,10.0,Calm,Calm,-,N/A,,Clear,0,2012-10-08 05:35:00
12:55 AM,37.8,35.4,91,30.21,10.0,Calm,Calm,-,N/A,,Clear,0,2012-10-08 05:55:00
1:15 AM,38.5,36.0,91,30.21,10.0,Calm,Calm,-,N/A,,Clear,0,2012-10-08 06:15:00
1:35 AM,38.7,36.3,91,30.21,10.0,Calm,Calm,-,N/A,,Clear,0,2012-10-08 06:35:00
1:55 AM,37.8,35.6,92,30.21,10.0,Calm,Calm,-,N/A,,Clear,0,2012-10-08 06:55:00
2:15 AM,38.1,36.1,93,30.21,10.0,Calm,Calm,-,N/A,,Clear,0,2012-10-08 07:15:00
2:35 AM,37.9,35.8,92,30.21,10.0,Calm,Calm,-,N/A,,Clear,0,2012-10-08 07:35:00
2:55 AM,38.1,36.0,92,30.20,10.0,Calm,Calm,-,N/A,,Clear,0,2012-10-08 07:55:00
3:15 AM,37.8,35.8,93,30.20,10.0,Calm,Calm,-,N/A,,Clear,0,2012-10-08 08:15:00
3:35 AM,37.2,35.4,93,30.20,10.0,Calm,Calm,-,N/A,,Clear,0,2012-10-08 08:35:00
3:55 AM,36.5,34.5,93,30.21,10.0,Calm,Calm,-,N/A,,Clear,0,2012-10-08 08:55:00
4:15 AM,36.0,33.4,91,30.21,10.0,Calm,Calm,-,N/A,,Clear,0,2012-10-08 09:15:00
4:35 AM,37.0,34.2,89,30.21,10.0,Calm,Calm,-,N/A,,Clear,0,2012-10-08 09:35:00
4:55 AM,37.4,34.2,88,30.21,10.0,Calm,Calm,-,N/A,,Clear,0,2012-10-08 09:55:00
5:15 AM,35.8,33.1,90,30.21,10.0,Calm,Calm,-,N/A,,Clear,0,2012-10-08 10:15:00
5:35 AM,35.8,33.1,90,30.21,10.0,Calm,Calm,-,N/A,,Clear,0,2012-10-08 10:35:00
5:55 AM,36.0,33.3,90,30.21,10.0,Calm,Calm,-,N/A,,Clear,0,2012-10-08 10:55:00
6:15 AM,35.8,32.5,88,30.22,10.0,Calm,Calm,-,N/A,,Clear,0,2012-10-08 11:15:00
6:35 AM,36.1,32.4,86,30.22,10.0,Calm,Calm,-,N/A,,Clear,0,2012-10-08 11:35:00
6:55 AM,34.7,32.0,90,30.22,10.0,Calm,Calm,-,N/A,,Clear,0,2012-10-08 11:55:00
7:15 AM,34.5,32.2,91,30.22,10.0,Calm,Calm,-,N/A,,Clear,0,2012-10-08 12:15:00
7:35 AM,35.6,33.1,91,30.23,10.0,Calm,Calm,-,N/A,,Clear,0,2012-10-08 12:35:00
7:55 AM,37.0,34.2,89,30.23,10.0,Calm,Calm,-,N/A,,Clear,0,2012-10-08 12:55:00
8:15 AM,40.3,33.3,76,30.23,10.0,South,3.5,-,N/A,,Clear,180,2012-10-08 13:15:00
8:35 AM,43.2,33.4,69,30.24,10.0,South,4.6,-,N/A,,Clear,180,2012-10-08 13:35:00
8:55 AM,45.5,35.4,68,30.24,10.0,South,4.6,-,N/A,,Clear,190,2012-10-08 13:55:00
9:15 AM,47.5,35.1,62,30.24,10.0,South,6.9,-,N/A,,Clear,180,2012-10-08 14:15:00
9:35 AM,49.8,33.6,54,30.24,10.0,South,6.9,-,N/A,,Clear,190,2012-10-08 14:35:00
9:55 AM,51.4,32.4,48,30.24,10.0,South,9.2,-,N/A,,Clear,190,2012-10-08 14:55:00
10:15 AM,52.7,30.6,43,30.24,10.0,SSW,8.1,-,N/A,,Clear,200,2012-10-08 15:15:00
10:35 AM,53.6,29.7,40,30.23,10.0,South,8.1,-,N/A,,Clear,180,2012-10-08 15:35:00
10:55 AM,54.5,29.3,38,30.23,10.0,SSW,6.9,-,N/A,,Clear,200,2012-10-08 15:55:00
11:15 AM,55.6,29.3,37,30.23,10.0,SW,9.2,-,N/A,,Clear,220,2012-10-08 16:15:00
11:35 AM,55.6,27.9,35,30.23,10.0,SSW,6.9,-,N/A,,Clear,210,2012-10-08 16:35:00
11:55 AM,55.6,25.7,32,30.22,10.0,SW,6.9,-,N/A,,Clear,220,2012-10-08 16:55:00
12:15 PM,56.1,27.7,34,30.21,10.0,SW,10.4,-,N/A,,Clear,220,2012-10-08 17:15:00
12:35 PM,57.2,26.6,31,30.21,10.0,SW,6.9,-,N/A,,Clear,220,2012-10-08 17:35:00
12:55 PM,57.6,26.2,30,30.19,10.0,South,6.9,-,N/A,,Clear,190,2012-10-08 17:55:00
1:15 PM,57.2,26.6,31,30.18,10.0,WSW,6.9,-,N/A,,Clear,240,2012-10-08 18:15:00
1:35 PM,58.6,26.6,29,30.17,10.0,SW,4.6,-,N/A,,Clear,220,2012-10-08 18:35:00
1:55 PM,58.1,25.7,29,30.16,10.0,South,6.9,-,N/A,,Clear,190,2012-10-08 18:55:00
2:15 PM,58.8,26.1,29,30.15,10.0,SW,10.4,-,N/A,,Clear,230,2012-10-08 19:15:00
2:35 PM,59.2,26.6,29,30.15,10.0,South,5.8,-,N/A,,Clear,190,2012-10-08 19:35:00
2:55 PM,59.2,26.6,29,30.14,10.0,SW,6.9,-,N/A,,Clear,220,2012-10-08 19:55:00
3:15 PM,59.2,27.1,29,30.13,10.0,SSW,5.8,-,N/A,,Clear,200,2012-10-08 20:15:00
3:35 PM,59.4,27.7,30,30.13,10.0,South,9.2,-,N/A,,Clear,180,2012-10-08 20:35:00
3:55 PM,59.9,27.1,29,30.12,10.0,South,6.9,-,N/A,,Clear,190,2012-10-08 20:55:00
4:15 PM,59.5,26.6,28,30.11,7.0,SW,9.2,-,N/A,,Clear,220,2012-10-08 21:15:00
4:35 PM,59.4,26.1,28,30.11,10.0,SSW,5.8,-,N/A,,Clear,210,2012-10-08 21:35:00
4:55 PM,59.0,26.6,29,30.11,10.0,SSW,5.8,-,N/A,,Clear,210,2012-10-08 21:55:00
5:15 PM,59.0,28.0,31,30.11,10.0,South,8.1,-,N/A,,Clear,190,2012-10-08 22:15:00
5:35 PM,58.8,29.5,33,30.11,10.0,SSW,9.2,-,N/A,,Clear,210,2012-10-08 22:35:00
5:55 PM,57.9,30.0,35,30.11,10.0,South,6.9,-,N/A,,Clear,190,2012-10-08 22:55:00
6:15 PM,56.5,30.7,38,30.11,10.0,Calm,Calm,-,N/A,,Clear,0,2012-10-08 23:15:00
6:35 PM,55.0,32.0,42,30.11,10.0,Calm,Calm,-,N/A,,Clear,0,2012-10-08 23:35:00
6:55 PM,51.8,33.8,50,30.11,10.0,SSE,3.5,-,N/A,,Clear,150,2012-10-08 23:55:00
7:15 PM,50.2,34.2,54,30.10,10.0,SSE,3.5,-,N/A,,Clear,160,2012-10-09 00:15:00
7:35 PM,50.2,34.3,55,30.10,10.0,SE,4.6,-,N/A,,Clear,140,2012-10-09 00:35:00
7:55 PM,50.0,33.8,54,30.10,10.0,SSE,4.6,-,N/A,,Clear,150,2012-10-09 00:55:00
8:15 PM,49.5,33.6,54,30.10,10.0,SSE,3.5,-,N/A,,Clear,150,2012-10-09 01:15:00
8:35 PM,49.1,33.8,56,30.11,10.0,SSE,4.6,-,N/A,,Clear,150,2012-10-09 01:35:00
8:55 PM,48.6,34.0,57,30.11,10.0,SSE,4.6,-,N/A,,Clear,150,2012-10-09 01:55:00
9:15 PM,48.6,34.0,57,30.11,10.0,SSE,4.6,-,N/A,,Clear,160,2012-10-09 02:15:00
9:35 PM,48.2,34.0,58,30.12,10.0,SSE,3.5,-,N/A,,Clear,160,2012-10-09 02:35:00
9:55 PM,48.0,34.2,59,30.12,10.0,South,3.5,-,N/A,,Clear,170,2012-10-09 02:55:00
10:15 PM,47.5,34.3,60,30.12,10.0,SSE,3.5,-,N/A,,Clear,160,2012-10-09 03:15:00
10:35 PM,47.5,34.2,60,30.12,10.0,South,4.6,-,N/A,,Clear,170,2012-10-09 03:35:00
10:55 PM,47.3,34.5,61,30.12,10.0,South,4.6,-,N/A,,Clear,170,2012-10-09 03:55:00
11:15 PM,46.9,34.3,62,30.11,10.0,SSE,3.5,-,N/A,,Clear,160,2012-10-09 04:15:00
11:35 PM,46.6,34.3,62,30.11,10.0,SSE,3.5,-,N/A,,Clear,160,2012-10-09 04:35:00
11:55 PM,46.6,34.7,63,30.10,10.0,South,3.5,-,N/A,,Clear,170,2012-10-09 04:55:00